Time,TemperatureF,DewpointF,PressureIn,WindDirection,WindDirectionDegrees,WindSpeedMPH,WindSpeedGustMPH,Humidity,HourlyPrecipIn,Conditions,Clouds,dailyrainin,SolarRadiationWatts/m^2,SoftwareType,DateUTC
2013-06-01 00:01:00,77.7,62.2,30.00,SW,221,0.0,0.0,59,0.00,,---,0.00,0.00,VWS V14.01,2013-06-01 04:01:00,
2013-06-01 00:06:00,77.5,62.1,30.00,SW,221,0.0,0.0,59,0.00,,---,0.00,0.00,VWS V14.01,2013-06-01 04:06:00,
2013-06-01 00:11:00,77.2,62.2,30.00,SW,221,0.0,0.0,60,0.00,,---,0.00,0.00,VWS V14.01,2013-06-01 04:11:00,
2013-06-01 00:16:00,77.2,62.7,30.00,SW,221,0.0,0.0,61,0.00,,---,0.00,0.00,VWS V14.01,2013-06-01 04:16:00,
2013-06-01 00:21:00,76.9,62.4,30.00,SW,221,0.0,0.0,61,0.00,,---,0.00,0.00,VWS V14.01,2013-06-01 04:21:00,
2013-06-01 00:26:00,76.1,62.6,30.00,SW,221,0.0,0.0,63,0.00,,---,0.00,0.00,VWS V14.01,2013-06-01 04:26:00,
2013-06-01 00:31:00,75.9,62.4,30.00,SW,222,0.0,0.0,63,0.00,,---,0.00,0.00,VWS V14.01,2013-06-01 04:31:00,
2013-06-01 00:36:00,75.7,62.7,30.00,SW,222,0.0,0.0,64,0.00,,---,0.00,0.00,VWS V14.01,2013-06-01 04:36:00,
2013-06-01 00:41:00,75.5,62.5,30.00,SW,222,0.0,0.0,64,0.00,,---,0.00,0.00,VWS V14.01,2013-06-01 04:41:00,
2013-06-01 00:46:00,75.3,62.7,30.00,SW,222,0.0,0.0,65,0.00,,---,0.00,0.00,VWS V14.01,2013-06-01 04:46:00,
2013-06-01 00:51:00,75.3,62.7,30.00,SW,222,0.0,0.0,65,0.00,,---,0.00,0.00,VWS V14.01,2013-06-01 04:51:00,
2013-06-01 00:56:00,75.4,62.8,30.00,SW,222,0.0,0.0,65,0.00,,---,0.00,0.00,VWS V14.01,2013-06-01 04:56:00,
2013-06-01 01:01:00,75.3,63.2,30.00,SW,222,0.0,0.0,66,0.00,,---,0.00,0.00,VWS V14.01,2013-06-01 05:01:00,
2013-06-01 01:06:00,75.0,63.3,30.00,SW,222,0.0,0.0,67,0.00,,---,0.00,0.00,VWS V14.01,2013-06-01 05:06:00,
2013-06-01 01:11:00,75.1,63.4,30.00,SW,222,0.0,0.0,67,0.00,,---,0.00,0.00,VWS V14.01,2013-06-01 05:11:00,
2013-06-01 01:16:00,75.1,63.4,29.99,WSW,238,0.0,0.0,67,0.00,,---,0.00,0.00,VWS V14.01,2013-06-01 05:16:00,
2013-06-01 01:21:00,74.9,63.6,29.99,WSW,238,0.0,0.0,68,0.00,,---,0.00,0.00,VWS V14.01,2013-06-01 05:21:00,
2013-06-01 01:26:00,74.7,63.9,29.99,WSW,238,0.0,0.0,69,0.00,,---,0.00,0.00,VWS V14.01,2013-06-01 05:26:00,
2013-06-01 01:31:00,74.6,63.8,29.99,WSW,238,0.0,0.0,69,0.00,,---,0.00,0.00,VWS V14.01,2013-06-01 05:31:00,
2013-06-01 01:36:00,74.5,64.1,29.99,SW,234,0.0,0.0,70,0.00,,---,0.00,0.00,VWS V14.01,2013-06-01 05:36:00,
2013-06-01 01:41:00,74.2,63.8,29.99,SW,234,0.0,0.0,70,0.00,,---,0.00,0.00,VWS V14.01,2013-06-01 05:41:00,
2013-06-01 01:46:00,74.3,63.9,29.99,SW,228,0.0,0.0,70,0.00,,---,0.00,0.00,VWS V14.01,2013-06-01 05:46:00,
2013-06-01 01:51:00,74.0,64.0,29.99,SW,228,0.0,0.0,71,0.00,,---,0.00,0.00,VWS V14.01,2013-06-01 05:51:00,
2013-06-01 01:56:00,73.9,64.3,29.99,SW,223,0.0,0.0,72,0.00,,---,0.00,0.00,VWS V14.01,2013-06-01 05:56:00,
2013-06-01 02:01:00,73.9,64.3,29.99,SW,225,0.0,0.0,72,0.00,,---,0.00,0.00,VWS V14.01,2013-06-01 06:01:00,
2013-06-01 02:06:00,73.9,64.3,29.99,SW,225,0.0,0.0,72,0.00,,---,0.00,0.00,VWS V14.01,2013-06-01 06:06:00,
2013-06-01 02:11:00,73.7,64.5,29.99,SW,225,0.0,0.0,73,0.00,,---,0.00,0.00,VWS V14.01,2013-06-01 06:11:00,
2013-06-01 02:16:00,73.4,64.2,30.00,SW,220,0.0,0.0,73,0.00,,---,0.00,0.00,VWS V14.01,2013-06-01 06:16:00,
2013-06-01 02:21:00,73.1,64.3,29.99,SW,227,0.0,0.0,74,0.00,,---,0.00,0.00,VWS V14.01,2013-06-01 06:21:00,
2013-06-01 02:26:00,73.1,64.3,29.99,SW,220,0.0,0.0,74,0.00,,---,0.00,0.00,VWS V14.01,2013-06-01 06:26:00,
2013-06-01 02:31:00,72.9,64.5,29.99,SW,220,0.0,0.0,75,0.00,,---,0.00,0.00,VWS V14.01,2013-06-01 06:31:00,
2013-06-01 02:36:00,72.9,64.1,29.99,SW,219,0.0,0.0,74,0.00,,---,0.00,0.00,VWS V14.01,2013-06-01 06:36:00,
2013-06-01 02:41:00,73.0,64.2,29.99,SW,219,0.0,0.0,74,0.00,,---,0.00,0.00,VWS V14.01,2013-06-01 06:41:00,
2013-06-01 02:46:00,73.4,64.6,29.99,SW,220,0.0,0.0,74,0.00,,---,0.00,0.00,VWS V14.01,2013-06-01 06:46:00,
2013-06-01 02:51:00,73.6,64.4,29.99,SW,220,0.0,0.0,73,0.00,,---,0.00,0.00,VWS V14.01,2013-06-01 06:51:00,
2013-06-01 02:56:00,72.8,64.8,29.99,SW,226,0.0,0.0,76,0.00,,---,0.00,0.00,VWS V14.01,2013-06-01 06:56:00,
2013-06-01 03:01:00,72.1,64.5,29.99,SW,226,0.0,0.0,77,0.00,,---,0.00,0.00,VWS V14.01,2013-06-01 07:01:00,
2013-06-01 03:06:00,72.1,64.9,29.99,SW,226,0.0,0.0,78,0.00,,---,0.00,0.00,VWS V14.01,2013-06-01 07:06:00,
2013-06-01 03:11:00,72.2,64.6,29.99,SW,226,0.0,0.0,77,0.00,,---,0.00,0.00,VWS V14.01,2013-06-01 07:11:00,
2013-06-01 03:16:00,72.0,65.1,29.98,SW,226,0.0,0.0,79,0.00,,---,0.00,0.00,VWS V14.01,2013-06-01 07:16:00,
2013-06-01 03:21:00,71.7,64.8,29.98,SW,226,0.0,0.0,79,0.00,,---,0.00,0.00,VWS V14.01,2013-06-01 07:21:00,
2013-06-01 03:26:00,71.5,65.0,29.98,SW,226,0.0,0.0,80,0.00,,---,0.00,0.00,VWS V14.01,2013-06-01 07:26:00,
2013-06-01 03:31:00,71.7,64.5,29.98,SW,226,0.0,0.0,78,0.00,,---,0.00,0.00,VWS V14.01,2013-06-01 07:31:00,
2013-06-01 03:36:00,72.0,65.1,29.98,SW,226,0.0,0.0,79,0.00,,---,0.00,0.00,VWS V14.01,2013-06-01 07:36:00,
2013-06-01 03:41:00,71.5,64.3,29.98,SW,226,0.0,0.0,78,0.00,,---,0.00,0.00,VWS V14.01,2013-06-01 07:41:00,
2013-06-01 03:46:00,71.5,64.7,29.99,SW,226,0.0,0.0,79,0.00,,---,0.00,0.00,VWS V14.01,2013-06-01 07:46:00,
2013-06-01 03:51:00,71.0,64.5,29.98,SW,226,0.0,0.0,80,0.00,,---,0.00,0.00,VWS V14.01,2013-06-01 07:51:00,
2013-06-01 03:56:00,71.2,64.7,29.98,SW,226,0.0,0.0,80,0.00,,---,0.00,0.00,VWS V14.01,2013-06-01 07:56:00,
2013-06-01 04:01:00,71.3,64.8,29.98,SW,226,0.0,0.0,80,0.00,,---,0.00,0.00,VWS V14.01,2013-06-01 08:01:00,
2013-06-01 04:06:00,70.9,64.8,29.98,SW,226,0.0,0.0,81,0.00,,---,0.00,0.00,VWS V14.01,2013-06-01 08:06:00,
2013-06-01 04:11:00,70.8,64.7,29.98,SW,226,0.0,0.0,81,0.00,,---,0.00,0.00,VWS V14.01,2013-06-01 08:11:00,
2013-06-01 04:16:00,70.8,64.7,29.98,SW,226,0.0,0.0,81,0.00,,---,0.00,0.00,VWS V14.01,2013-06-01 08:16:00,
2013-06-01 04:21:00,70.8,64.7,29.98,SW,226,0.0,0.0,81,0.00,,---,0.00,0.00,VWS V14.01,2013-06-01 08:21:00,
2013-06-01 04:26:00,70.6,64.8,29.98,SW,226,0.0,0.0,82,0.00,,---,0.00,0.00,VWS V14.01,2013-06-01 08:26:00,
2013-06-01 04:31:00,70.8,65.0,29.99,SW,226,0.0,0.0,82,0.00,,---,0.00,0.00,VWS V14.01,2013-06-01 08:31:00,
2013-06-01 04:36:00,70.8,65.0,29.99,SW,226,0.0,0.0,82,0.00,,---,0.00,0.00,VWS V14.01,2013-06-01 08:36:00,
2013-06-01 04:41:00,70.6,65.2,29.99,SW,226,0.0,0.0,83,0.00,,---,0.00,0.00,VWS V14.01,2013-06-01 08:41:00,
2013-06-01 04:46:00,70.5,65.1,29.99,SW,226,0.0,0.0,83,0.00,,---,0.00,0.00,VWS V14.01,2013-06-01 08:46:00,
2013-06-01 04:51:00,70.5,65.1,29.99,SW,226,0.0,0.0,83,0.00,,---,0.00,0.00,VWS V14.01,2013-06-01 08:51:00,
2013-06-01 04:56:00,70.1,65.4,29.99,SW,226,0.0,0.0,85,0.00,,---,0.00,0.00,VWS V14.01,2013-06-01 08:56:00,
2013-06-01 05:01:00,70.2,65.5,29.99,SW,214,0.0,0.0,85,0.00,,---,0.00,0.00,VWS V14.01,2013-06-01 09:01:00,
2013-06-01 05:06:00,70.1,65.4,29.99,SW,214,0.0,0.0,85,0.00,,---,0.00,0.00,VWS V14.01,2013-06-01 09:06:00,
2013-06-01 05:11:00,70.2,65.5,29.99,SW,214,0.0,0.0,85,0.00,,---,0.00,0.00,VWS V14.01,2013-06-01 09:11:00,
2013-06-01 05:16:00,70.1,65.4,29.99,SSW,213,0.0,0.0,85,0.00,,---,0.00,0.00,VWS V14.01,2013-06-01 09:16:00,
2013-06-01 05:21:00,70.1,65.4,29.99,SW,224,0.0,0.0,85,0.00,,---,0.00,0.00,VWS V14.01,2013-06-01 09:21:00,
2013-06-01 05:25:00,69.9,65.2,29.99,SW,224,0.0,0.0,85,0.00,,---,0.00,0.00,VWS V14.01,2013-06-01 09:25:00,
2013-06-01 05:30:00,69.9,65.2,29.98,SW,224,0.0,0.0,85,0.00,,---,0.00,0.00,VWS V14.01,2013-06-01 09:30:00,
2013-06-01 05:35:00,70.3,65.2,29.99,SW,224,0.0,0.0,84,0.00,,---,0.00,7.00,VWS V14.01,2013-06-01 09:35:00,
2013-06-01 05:40:00,70.2,65.1,29.99,SW,224,0.0,0.0,84,0.00,,---,0.00,9.00,VWS V14.01,2013-06-01 09:40:00,
2013-06-01 05:45:00,69.4,65.0,29.99,SW,223,0.0,0.0,86,0.00,,---,0.00,12.00,VWS V14.01,2013-06-01 09:45:00,
2013-06-01 05:50:00,69.2,65.2,29.99,SW,223,0.0,0.0,87,0.00,,---,0.00,16.00,VWS V14.01,2013-06-01 09:50:00,
2013-06-01 05:55:00,69.1,65.1,29.99,SW,223,0.0,0.0,87,0.00,,---,0.00,21.00,VWS V14.01,2013-06-01 09:55:00,
2013-06-01 06:00:00,69.1,65.4,29.99,SW,223,0.0,0.0,88,0.00,,---,0.00,28.00,VWS V14.01,2013-06-01 10:00:00,
2013-06-01 06:05:00,69.5,65.1,30.00,SW,223,0.0,0.0,86,0.00,,---,0.00,37.00,VWS V14.01,2013-06-01 10:05:00,
2013-06-01 06:10:00,69.7,65.7,29.99,SW,223,0.0,0.0,87,0.00,,---,0.00,47.00,VWS V14.01,2013-06-01 10:10:00,
2013-06-01 06:15:00,69.7,65.7,30.00,SSW,213,0.0,0.0,87,0.00,,---,0.00,56.00,VWS V14.01,2013-06-01 10:15:00,
2013-06-01 06:20:00,69.9,65.9,30.00,SSW,202,0.0,0.0,87,0.00,,---,0.00,65.00,VWS V14.01,2013-06-01 10:20:00,
2013-06-01 06:25:00,70.2,66.2,29.99,SW,215,0.0,0.0,87,0.00,,---,0.00,76.00,VWS V14.01,2013-06-01 10:25:00,
2013-06-01 06:30:00,70.4,66.0,29.99,SW,217,0.0,0.0,86,0.00,,---,0.00,88.00,VWS V14.01,2013-06-01 10:30:00,
2013-06-01 06:35:00,70.5,66.1,29.99,SW,230,0.0,0.0,86,0.00,,---,0.00,104.00,VWS V14.01,2013-06-01 10:35:00,
2013-06-01 06:40:00,70.8,66.1,29.99,SW,229,0.0,0.0,85,0.00,,---,0.00,121.00,VWS V14.01,2013-06-01 10:40:00,
2013-06-01 06:45:00,71.2,66.5,30.00,SW,227,0.0,0.0,85,0.00,,---,0.00,137.00,VWS V14.01,2013-06-01 10:45:00,
2013-06-01 06:50:00,71.2,66.1,30.00,SW,219,0.0,0.0,84,0.00,,---,0.00,151.00,VWS V14.01,2013-06-01 10:50:00,
2013-06-01 06:55:00,71.5,66.4,29.99,WSW,238,0.0,0.0,84,0.00,,---,0.00,165.00,VWS V14.01,2013-06-01 10:55:00,
2013-06-01 07:00:00,71.9,66.5,29.99,SW,228,0.0,0.0,83,0.00,,---,0.00,179.00,VWS V14.01,2013-06-01 11:00:00,
2013-06-01 07:05:00,72.1,66.7,30.00,WSW,247,0.0,0.0,83,0.00,,---,0.00,195.00,VWS V14.01,2013-06-01 11:05:00,
2013-06-01 07:10:00,72.0,66.6,30.00,South,186,0.0,0.0,83,0.00,,---,0.00,209.00,VWS V14.01,2013-06-01 11:10:00,
2013-06-01 07:15:00,72.4,66.9,30.00,SE,146,0.0,0.0,83,0.00,,---,0.00,225.00,VWS V14.01,2013-06-01 11:15:00,
2013-06-01 07:20:00,72.7,66.9,30.00,SW,228,0.0,0.0,82,0.00,,---,0.00,239.00,VWS V14.01,2013-06-01 11:20:00,
2013-06-01 07:25:00,73.1,67.3,30.00,WSW,257,0.0,0.0,82,0.00,,---,0.00,251.00,VWS V14.01,2013-06-01 11:25:00,
2013-06-01 07:30:00,73.6,67.4,30.00,SW,234,0.0,0.0,81,0.00,,---,0.00,267.00,VWS V14.01,2013-06-01 11:30:00,
2013-06-01 07:35:00,73.7,67.2,30.00,SSW,201,0.0,0.0,80,0.00,,---,0.00,281.00,VWS V14.01,2013-06-01 11:35:00,
2013-06-01 07:40:00,73.7,67.2,30.00,WNW,292,0.0,0.0,80,0.00,,---,0.00,299.00,VWS V14.01,2013-06-01 11:40:00,
2013-06-01 07:45:00,74.3,67.0,30.00,West,273,0.0,0.0,78,0.00,,---,0.00,313.00,VWS V14.01,2013-06-01 11:45:00,
2013-06-01 07:50:00,74.0,67.1,30.00,SW,226,0.0,0.0,79,0.00,,---,0.00,329.00,VWS V14.01,2013-06-01 11:50:00,
2013-06-01 07:55:00,74.1,67.2,30.00,WSW,238,0.0,0.0,79,0.00,,---,0.00,346.00,VWS V14.01,2013-06-01 11:55:00,
2013-06-01 08:00:00,74.4,67.1,30.00,West,265,0.0,0.0,78,0.00,,---,0.00,360.00,VWS V14.01,2013-06-01 12:00:00,
2013-06-01 08:05:00,74.5,66.8,30.00,WSW,237,0.0,0.0,77,0.00,,---,0.00,376.00,VWS V14.01,2013-06-01 12:05:00,
2013-06-01 08:10:00,74.8,67.1,30.00,West,262,0.0,0.0,77,0.00,,---,0.00,390.00,VWS V14.01,2013-06-01 12:10:00,
2013-06-01 08:15:00,75.7,67.6,30.00,West,279,0.0,0.0,76,0.00,,---,0.00,406.00,VWS V14.01,2013-06-01 12:15:00,
2013-06-01 08:20:00,75.5,67.0,30.01,West,263,0.0,0.0,75,0.00,,---,0.00,422.00,VWS V14.01,2013-06-01 12:20:00,
2013-06-01 08:25:00,76.5,67.6,30.01,SW,232,0.0,0.0,74,0.00,,---,0.00,438.00,VWS V14.01,2013-06-01 12:25:00,
2013-06-01 08:30:00,77.0,67.7,30.00,West,281,0.0,0.0,73,0.00,,---,0.00,457.00,VWS V14.01,2013-06-01 12:30:00,
2013-06-01 08:35:00,77.8,68.1,30.00,South,190,0.0,0.0,72,0.00,,---,0.00,469.00,VWS V14.01,2013-06-01 12:35:00,
2013-06-01 08:40:00,77.1,67.8,30.00,South,185,0.0,0.0,73,0.00,,---,0.00,487.00,VWS V14.01,2013-06-01 12:40:00,
2013-06-01 08:45:00,77.6,67.9,30.00,SSW,212,0.0,0.0,72,0.00,,---,0.00,501.00,VWS V14.01,2013-06-01 12:45:00,
2013-06-01 08:50:00,78.5,67.9,30.00,SSE,155,0.0,0.0,70,0.00,,---,0.00,517.00,VWS V14.01,2013-06-01 12:50:00,
2013-06-01 08:55:00,78.9,67.9,30.00,SW,225,0.0,0.0,69,0.00,,---,0.00,536.00,VWS V14.01,2013-06-01 12:55:00,
2013-06-01 09:00:00,79.3,68.3,30.00,WSW,251,0.0,0.0,69,0.00,,---,0.00,552.00,VWS V14.01,2013-06-01 13:00:00,
2013-06-01 09:05:00,79.4,67.9,30.00,SW,215,0.0,0.0,68,0.00,,---,0.00,568.00,VWS V14.01,2013-06-01 13:05:00,
2013-06-01 09:10:00,79.2,67.7,29.99,WSW,243,0.0,0.0,68,0.00,,---,0.00,578.00,VWS V14.01,2013-06-01 13:10:00,
2013-06-01 09:15:00,80.2,68.3,29.99,WSW,253,0.0,0.0,67,0.00,,---,0.00,594.00,VWS V14.01,2013-06-01 13:15:00,
2013-06-01 09:20:00,80.5,68.1,29.99,WNW,303,0.0,0.0,66,0.00,,---,0.00,606.00,VWS V14.01,2013-06-01 13:20:00,
2013-06-01 09:25:00,80.7,67.8,29.99,SSW,207,0.0,0.0,65,0.00,,---,0.00,628.00,VWS V14.01,2013-06-01 13:25:00,
2013-06-01 09:30:00,79.6,67.7,29.99,SW,227,0.0,0.0,67,0.00,,---,0.00,642.00,VWS V14.01,2013-06-01 13:30:00,
2013-06-01 09:35:00,80.5,68.1,29.99,WSW,243,0.0,0.0,66,0.00,,---,0.00,649.00,VWS V14.01,2013-06-01 13:35:00,
2013-06-01 09:40:00,81.7,68.3,29.98,SSW,213,0.0,0.0,64,0.00,,---,0.00,664.00,VWS V14.01,2013-06-01 13:40:00,
2013-06-01 09:45:00,81.4,68.1,29.99,SW,236,0.0,0.0,64,0.00,,---,0.00,675.00,VWS V14.01,2013-06-01 13:45:00,
2013-06-01 09:50:00,81.2,69.2,29.99,West,281,0.0,0.0,67,0.00,,---,0.00,687.00,VWS V14.01,2013-06-01 13:50:00,
2013-06-01 09:55:00,81.4,69.0,29.98,WNW,300,0.0,0.0,66,0.00,,---,0.00,703.00,VWS V14.01,2013-06-01 13:55:00,
2013-06-01 10:00:00,82.8,68.9,29.98,West,268,0.0,0.0,63,0.00,,---,0.00,712.00,VWS V14.01,2013-06-01 14:00:00,
2013-06-01 10:05:00,83.5,68.7,29.98,WNW,298,0.0,0.0,61,0.00,,---,0.00,729.00,VWS V14.01,2013-06-01 14:05:00,
2013-06-01 10:10:00,83.7,68.8,29.98,South,186,0.0,0.0,61,0.00,,---,0.00,738.00,VWS V14.01,2013-06-01 14:10:00,
2013-06-01 10:15:00,83.6,68.7,29.98,WNW,296,0.0,0.0,61,0.00,,---,0.00,751.00,VWS V14.01,2013-06-01 14:15:00,
2013-06-01 10:20:00,85.2,68.8,29.97,West,259,0.0,0.0,58,0.00,,---,0.00,758.00,VWS V14.01,2013-06-01 14:20:00,
2013-06-01 10:25:00,84.4,68.5,29.97,SW,235,0.0,0.0,59,0.00,,---,0.00,770.00,VWS V14.01,2013-06-01 14:25:00,
2013-06-01 10:30:00,83.4,69.0,29.97,West,266,0.0,0.0,62,0.00,,---,0.00,779.00,VWS V14.01,2013-06-01 14:30:00,
2013-06-01 10:35:00,83.9,68.1,29.97,WSW,250,0.0,0.0,59,0.00,,---,0.00,793.00,VWS V14.01,2013-06-01 14:35:00,
2013-06-01 10:40:00,84.8,68.9,29.97,West,261,0.0,0.0,59,0.00,,---,0.00,802.00,VWS V14.01,2013-06-01 14:40:00,
2013-06-01 10:45:00,84.3,68.4,29.97,South,173,0.0,0.0,59,0.00,,---,0.00,810.00,VWS V14.01,2013-06-01 14:45:00,
2013-06-01 10:50:00,85.1,68.2,29.97,NW,324,0.0,0.0,57,0.00,,---,0.00,821.00,VWS V14.01,2013-06-01 14:50:00,
2013-06-01 10:55:00,85.2,67.8,29.97,WSW,244,0.0,0.0,56,0.00,,---,0.00,824.00,VWS V14.01,2013-06-01 14:55:00,
2013-06-01 11:00:00,85.8,69.3,29.97,SSW,209,0.0,0.0,58,0.00,,---,0.00,842.00,VWS V14.01,2013-06-01 15:00:00,
2013-06-01 11:05:00,86.6,68.0,29.97,WSW,248,0.0,0.0,54,0.00,,---,0.00,851.00,VWS V14.01,2013-06-01 15:05:00,
2013-06-01 11:10:00,87.4,68.2,29.97,SW,219,0.0,0.0,53,0.00,,---,0.00,854.00,VWS V14.01,2013-06-01 15:10:00,
2013-06-01 11:15:00,86.6,69.1,29.97,SW,229,0.0,0.0,56,0.00,,---,0.00,854.00,VWS V14.01,2013-06-01 15:15:00,
2013-06-01 11:20:00,86.1,69.1,29.97,WSW,238,0.0,0.0,57,0.00,,---,0.00,867.00,VWS V14.01,2013-06-01 15:20:00,
2013-06-01 11:25:00,86.6,69.1,29.97,SW,215,0.0,0.0,56,0.00,,---,0.00,879.00,VWS V14.01,2013-06-01 15:25:00,
2013-06-01 11:30:00,86.5,69.0,29.97,South,186,0.0,0.0,56,0.00,,---,0.00,884.00,VWS V14.01,2013-06-01 15:30:00,
2013-06-01 11:35:00,86.8,69.2,29.97,SW,231,0.0,0.0,56,0.00,,---,0.00,884.00,VWS V14.01,2013-06-01 15:35:00,
2013-06-01 11:40:00,87.7,69.0,29.96,SSW,198,0.0,0.0,54,0.00,,---,0.00,893.00,VWS V14.01,2013-06-01 15:40:00,
2013-06-01 11:45:00,87.6,67.8,29.97,SW,221,0.0,0.0,52,0.00,,---,0.00,905.00,VWS V14.01,2013-06-01 15:45:00,
2013-06-01 11:50:00,86.3,67.7,29.96,NW,314,0.0,0.0,54,0.00,,---,0.00,900.00,VWS V14.01,2013-06-01 15:50:00,
2013-06-01 11:55:00,87.5,68.3,29.97,SW,221,0.0,0.0,53,0.00,,---,0.00,912.00,VWS V14.01,2013-06-01 15:55:00,
2013-06-01 12:00:00,87.7,68.5,29.96,SSW,202,0.0,0.0,53,0.00,,---,0.00,916.00,VWS V14.01,2013-06-01 16:00:00,
2013-06-01 12:05:00,87.4,68.7,29.96,ESE,106,0.0,0.0,54,0.00,,---,0.00,921.00,VWS V14.01,2013-06-01 16:05:00,
2013-06-01 12:10:00,87.2,67.4,29.96,NNW,335,0.0,0.0,52,0.00,,---,0.00,921.00,VWS V14.01,2013-06-01 16:10:00,
2013-06-01 12:15:00,88.0,67.6,29.96,South,180,0.0,0.0,51,0.00,,---,0.00,921.00,VWS V14.01,2013-06-01 16:15:00,
2013-06-01 12:20:00,87.7,67.9,29.96,SW,232,0.0,0.0,52,0.00,,---,0.00,928.00,VWS V14.01,2013-06-01 16:20:00,
2013-06-01 12:25:00,88.4,68.0,29.95,SW,218,0.0,0.0,51,0.00,,---,0.00,937.00,VWS V14.01,2013-06-01 16:25:00,
2013-06-01 12:30:00,88.4,68.0,29.96,West,281,0.0,0.0,51,0.00,,---,0.00,923.00,VWS V14.01,2013-06-01 16:30:00,
2013-06-01 12:35:00,88.7,68.3,29.96,SW,215,0.0,0.0,51,0.00,,---,0.00,954.00,VWS V14.01,2013-06-01 16:35:00,
2013-06-01 12:40:00,89.4,68.3,29.96,WSW,250,0.0,0.0,50,0.00,,---,0.00,923.00,VWS V14.01,2013-06-01 16:40:00,
2013-06-01 12:45:00,89.2,68.2,29.95,SSW,198,0.0,0.0,50,0.00,,---,0.00,933.00,VWS V14.01,2013-06-01 16:45:00,
2013-06-01 12:50:00,89.4,68.9,29.95,WSW,242,0.0,0.0,51,0.00,,---,0.00,1011.00,VWS V14.01,2013-06-01 16:50:00,
2013-06-01 12:55:00,88.6,68.2,29.95,WSW,250,0.0,0.0,51,0.00,,---,0.00,954.00,VWS V14.01,2013-06-01 16:55:00,
2013-06-01 13:00:00,87.7,67.9,29.95,NNE,29,0.0,0.0,52,0.00,,---,0.00,962.00,VWS V14.01,2013-06-01 17:00:00,
2013-06-01 13:05:00,88.2,68.4,29.94,SW,218,0.0,0.0,52,0.00,,---,0.00,976.00,VWS V14.01,2013-06-01 17:05:00,
2013-06-01 13:10:00,88.7,68.3,29.94,SSW,213,0.0,0.0,51,0.00,,---,0.00,962.00,VWS V14.01,2013-06-01 17:10:00,
2013-06-01 13:15:00,89.1,69.8,29.94,WSW,243,0.0,0.0,53,0.00,,---,0.00,983.00,VWS V14.01,2013-06-01 17:15:00,
2013-06-01 13:20:00,89.1,68.1,29.94,WSW,242,0.0,0.0,50,0.00,,---,0.00,990.00,VWS V14.01,2013-06-01 17:20:00,
2013-06-01 13:25:00,89.3,69.4,29.93,WNW,284,0.0,0.0,52,0.00,,---,0.00,949.00,VWS V14.01,2013-06-01 17:25:00,
2013-06-01 13:30:00,89.9,68.2,29.94,SW,226,0.0,0.0,49,0.00,,---,0.00,988.00,VWS V14.01,2013-06-01 17:30:00,
2013-06-01 13:35:00,88.8,68.9,29.94,SW,221,0.0,0.0,52,0.00,,---,0.00,960.00,VWS V14.01,2013-06-01 17:35:00,
2013-06-01 13:40:00,88.8,68.9,29.93,SW,232,0.0,0.0,52,0.00,,---,0.00,946.00,VWS V14.01,2013-06-01 17:40:00,
2013-06-01 13:45:00,89.1,68.6,29.93,WNW,286,0.0,0.0,51,0.00,,---,0.00,947.00,VWS V14.01,2013-06-01 17:45:00,
2013-06-01 13:50:00,89.1,69.2,29.93,WSW,244,0.0,0.0,52,0.00,,---,0.00,970.00,VWS V14.01,2013-06-01 17:50:00,
2013-06-01 13:55:00,89.3,68.2,29.93,South,186,0.0,0.0,50,0.00,,---,0.00,960.00,VWS V14.01,2013-06-01 17:55:00,
2013-06-01 14:00:00,89.5,68.4,29.93,WSW,243,0.0,0.0,50,0.00,,---,0.00,225.00,VWS V14.01,2013-06-01 18:00:00,
2013-06-01 14:05:00,90.4,69.2,29.93,SE,146,0.0,0.0,50,0.00,,---,0.00,965.00,VWS V14.01,2013-06-01 18:05:00,
2013-06-01 14:10:00,89.8,68.1,29.92,SSW,200,0.0,0.0,49,0.00,,---,0.00,916.00,VWS V14.01,2013-06-01 18:10:00,
2013-06-01 14:15:00,89.8,68.1,29.92,SW,233,0.0,0.0,49,0.00,,---,0.00,847.00,VWS V14.01,2013-06-01 18:15:00,
2013-06-01 14:20:00,90.2,68.5,29.92,WSW,249,0.0,0.0,49,0.00,,---,0.00,919.00,VWS V14.01,2013-06-01 18:20:00,
2013-06-01 14:25:00,91.0,68.0,29.92,SSW,198,0.0,0.0,47,0.00,,---,0.00,930.00,VWS V14.01,2013-06-01 18:25:00,
2013-06-01 14:30:00,91.3,68.3,29.92,WSW,244,0.0,0.0,47,0.00,,---,0.00,888.00,VWS V14.01,2013-06-01 18:30:00,
2013-06-01 14:35:00,90.1,67.2,29.92,SSW,192,0.0,0.0,47,0.00,,---,0.00,854.00,VWS V14.01,2013-06-01 18:35:00,
2013-06-01 14:40:00,90.8,67.8,29.92,West,263,0.0,0.0,47,0.00,,---,0.00,865.00,VWS V14.01,2013-06-01 18:40:00,
2013-06-01 14:45:00,90.3,68.0,29.91,WSW,237,0.0,0.0,48,0.00,,---,0.00,826.00,VWS V14.01,2013-06-01 18:45:00,
2013-06-01 14:50:00,90.4,66.8,29.91,SW,218,0.0,0.0,46,0.00,,---,0.00,844.00,VWS V14.01,2013-06-01 18:50:00,
2013-06-01 14:55:00,90.2,66.6,29.91,West,259,0.0,0.0,46,0.00,,---,0.00,844.00,VWS V14.01,2013-06-01 18:55:00,
2013-06-01 15:00:00,90.8,67.2,29.91,WSW,248,0.0,0.0,46,0.00,,---,0.00,830.00,VWS V14.01,2013-06-01 19:00:00,
2013-06-01 15:05:00,90.9,67.3,29.91,West,271,0.0,0.0,46,0.00,,---,0.00,810.00,VWS V14.01,2013-06-01 19:05:00,
2013-06-01 15:10:00,90.9,66.6,29.91,SW,236,0.0,0.0,45,0.00,,---,0.00,812.00,VWS V14.01,2013-06-01 19:10:00,
2013-06-01 15:15:00,91.6,67.3,29.91,SW,232,0.0,0.0,45,0.00,,---,0.00,796.00,VWS V14.01,2013-06-01 19:15:00,
2013-06-01 15:20:00,91.9,66.9,29.91,WSW,257,0.0,0.0,44,0.00,,---,0.00,793.00,VWS V14.01,2013-06-01 19:20:00,
2013-06-01 15:25:00,91.4,65.8,29.91,SSW,193,0.0,0.0,43,0.00,,---,0.00,775.00,VWS V14.01,2013-06-01 19:25:00,
2013-06-01 15:30:00,91.1,66.2,29.91,West,279,0.0,0.0,44,0.00,,---,0.00,758.00,VWS V14.01,2013-06-01 19:30:00,
2013-06-01 15:35:00,91.7,66.1,29.90,SE,128,0.0,0.0,43,0.00,,---,0.00,751.00,VWS V14.01,2013-06-01 19:35:00,
2013-06-01 15:40:00,90.7,65.8,29.90,SSE,165,0.0,0.0,44,0.00,,---,0.00,728.00,VWS V14.01,2013-06-01 19:40:00,
2013-06-01 15:45:00,90.6,65.7,29.90,SW,215,0.0,0.0,44,0.00,,---,0.00,735.00,VWS V14.01,2013-06-01 19:45:00,
2013-06-01 15:50:00,90.7,65.8,29.90,West,259,0.0,0.0,44,0.00,,---,0.00,726.00,VWS V14.01,2013-06-01 19:50:00,
2013-06-01 15:55:00,91.2,65.6,29.90,SSW,213,0.0,0.0,43,0.00,,---,0.00,721.00,VWS V14.01,2013-06-01 19:55:00,
2013-06-01 16:00:00,90.7,65.2,29.91,SW,229,0.0,0.0,43,0.00,,---,0.00,712.00,VWS V14.01,2013-06-01 20:00:00,
2013-06-01 16:05:00,91.3,66.3,29.91,WSW,247,0.0,0.0,44,0.00,,---,0.00,698.00,VWS V14.01,2013-06-01 20:05:00,
2013-06-01 16:10:00,91.9,66.9,29.90,South,176,0.0,0.0,44,0.00,,---,0.00,687.00,VWS V14.01,2013-06-01 20:10:00,
2013-06-01 16:15:00,91.3,65.0,29.90,South,188,0.0,0.0,42,0.00,,---,0.00,679.00,VWS V14.01,2013-06-01 20:15:00,
2013-06-01 16:20:00,91.3,65.0,29.90,WSW,255,0.0,0.0,42,0.00,,---,0.00,664.00,VWS V14.01,2013-06-01 20:20:00,
2013-06-01 16:25:00,91.5,66.5,29.90,West,274,0.0,0.0,44,0.00,,---,0.00,661.00,VWS V14.01,2013-06-01 20:25:00,
2013-06-01 16:30:00,92.3,65.9,29.90,NNW,339,0.0,0.0,42,0.00,,---,0.00,650.00,VWS V14.01,2013-06-01 20:30:00,
2013-06-01 16:35:00,92.6,66.2,29.90,WSW,252,0.0,0.0,42,0.00,,---,0.00,633.00,VWS V14.01,2013-06-01 20:35:00,
2013-06-01 16:40:00,91.6,65.3,29.90,SW,217,0.0,0.0,42,0.00,,---,0.00,606.00,VWS V14.01,2013-06-01 20:40:00,
2013-06-01 16:45:00,91.6,66.0,29.89,WSW,240,0.0,0.0,43,0.00,,---,0.00,591.00,VWS V14.01,2013-06-01 20:45:00,
2013-06-01 16:50:00,92.1,65.7,29.89,WSW,238,0.0,0.0,42,0.00,,---,0.00,578.00,VWS V14.01,2013-06-01 20:50:00,
2013-06-01 16:55:00,91.9,65.6,29.89,WSW,243,0.0,0.0,42,0.00,,---,0.00,570.00,VWS V14.01,2013-06-01 20:55:00,
2013-06-01 17:00:00,91.5,63.8,29.89,SW,227,0.0,0.0,40,0.00,,---,0.00,566.00,VWS V14.01,2013-06-01 21:00:00,
2013-06-01 17:05:00,90.8,63.9,29.89,SSW,204,0.0,0.0,41,0.00,,---,0.00,559.00,VWS V14.01,2013-06-01 21:05:00,
2013-06-01 17:10:00,90.5,63.6,29.89,SSW,210,0.0,0.0,41,0.00,,---,0.00,450.00,VWS V14.01,2013-06-01 21:10:00,
2013-06-01 17:15:00,91.1,64.8,29.89,WSW,245,0.0,0.0,42,0.00,,---,0.00,378.00,VWS V14.01,2013-06-01 21:15:00,
2013-06-01 17:20:00,91.0,63.3,29.89,West,272,0.0,0.0,40,0.00,,---,0.00,362.00,VWS V14.01,2013-06-01 21:20:00,
2013-06-01 17:25:00,90.6,63.0,29.89,WSW,253,0.0,0.0,40,0.00,,---,0.00,338.00,VWS V14.01,2013-06-01 21:25:00,
2013-06-01 17:30:00,90.9,62.5,29.89,SW,223,0.0,0.0,39,0.00,,---,0.00,318.00,VWS V14.01,2013-06-01 21:30:00,
2013-06-01 17:35:00,90.5,63.6,29.89,SW,232,0.0,0.0,41,0.00,,---,0.00,262.00,VWS V14.01,2013-06-01 21:35:00,
2013-06-01 17:40:00,90.1,63.2,29.88,SW,222,0.0,0.0,41,0.00,,---,0.00,255.00,VWS V14.01,2013-06-01 21:40:00,
2013-06-01 17:45:00,90.2,64.0,29.88,SW,234,0.0,0.0,42,0.00,,---,0.00,213.00,VWS V14.01,2013-06-01 21:45:00,
2013-06-01 17:50:00,89.9,63.1,29.88,SW,234,0.0,0.0,41,0.00,,---,0.00,176.00,VWS V14.01,2013-06-01 21:50:00,
2013-06-01 17:55:00,89.8,63.0,29.88,SW,215,0.0,0.0,41,0.00,,---,0.00,167.00,VWS V14.01,2013-06-01 21:55:00,
2013-06-01 18:00:00,89.2,62.4,29.88,SSW,200,0.0,0.0,41,0.00,,---,0.00,158.00,VWS V14.01,2013-06-01 22:00:00,
2013-06-01 18:05:00,89.0,63.0,29.88,WSW,253,0.0,0.0,42,0.00,,---,0.00,169.00,VWS V14.01,2013-06-01 22:05:00,
2013-06-01 18:10:00,89.0,62.3,29.88,West,271,0.0,0.0,41,0.00,,---,0.00,160.00,VWS V14.01,2013-06-01 22:10:00,
2013-06-01 18:15:00,89.0,63.0,29.88,WSW,242,0.0,0.0,42,0.00,,---,0.00,151.00,VWS V14.01,2013-06-01 22:15:00,
2013-06-01 18:20:00,88.6,62.6,29.88,SW,228,0.0,0.0,42,0.00,,---,0.00,148.00,VWS V14.01,2013-06-01 22:20:00,
2013-06-01 18:25:00,88.6,63.3,29.88,SW,218,0.0,0.0,43,0.00,,---,0.00,146.00,VWS V14.01,2013-06-01 22:25:00,
2013-06-01 18:30:00,88.5,61.8,29.88,SW,225,0.0,0.0,41,0.00,,---,0.00,139.00,VWS V14.01,2013-06-01 22:30:00,
2013-06-01 18:35:00,88.3,62.3,29.87,WSW,256,0.0,0.0,42,0.00,,---,0.00,123.00,VWS V14.01,2013-06-01 22:35:00,
2013-06-01 18:40:00,88.3,63.0,29.87,WSW,250,0.0,0.0,43,0.00,,---,0.00,113.00,VWS V14.01,2013-06-01 22:40:00,
2013-06-01 18:45:00,88.3,62.3,29.87,WSW,237,0.0,0.0,42,0.00,,---,0.00,109.00,VWS V14.01,2013-06-01 22:45:00,
2013-06-01 18:50:00,88.5,63.2,29.87,WSW,240,0.0,0.0,43,0.00,,---,0.00,102.00,VWS V14.01,2013-06-01 22:50:00,
2013-06-01 18:55:00,88.3,63.0,29.87,SSW,213,0.0,0.0,43,0.00,,---,0.00,100.00,VWS V14.01,2013-06-01 22:55:00,
2013-06-01 19:00:00,88.1,63.5,29.88,WSW,250,0.0,0.0,44,0.00,,---,0.00,123.00,VWS V14.01,2013-06-01 23:00:00,
2013-06-01 19:05:00,88.0,63.4,29.88,SSW,202,0.0,0.0,44,0.00,,---,0.00,155.00,VWS V14.01,2013-06-01 23:05:00,
2013-06-01 19:10:00,88.0,63.4,29.88,SW,232,0.0,0.0,44,0.00,,---,0.00,165.00,VWS V14.01,2013-06-01 23:10:00,
2013-06-01 19:15:00,88.3,64.3,29.88,SW,218,0.0,0.0,45,0.00,,---,0.00,148.00,VWS V14.01,2013-06-01 23:15:00,
2013-06-01 19:20:00,88.3,63.7,29.88,WSW,241,0.0,0.0,44,0.00,,---,0.00,125.00,VWS V14.01,2013-06-01 23:20:00,
2013-06-01 19:25:00,88.1,64.1,29.88,West,279,0.0,0.0,45,0.00,,---,0.00,102.00,VWS V14.01,2013-06-01 23:25:00,
2013-06-01 19:30:00,87.9,63.9,29.88,SSE,163,0.0,0.0,45,0.00,,---,0.00,76.00,VWS V14.01,2013-06-01 23:30:00,
2013-06-01 19:35:00,87.8,63.8,29.88,WSW,252,0.0,0.0,45,0.00,,---,0.00,56.00,VWS V14.01,2013-06-01 23:35:00,
2013-06-01 19:40:00,87.4,63.5,29.88,SW,229,0.0,0.0,45,0.00,,---,0.00,42.00,VWS V14.01,2013-06-01 23:40:00,
2013-06-01 19:45:00,87.1,63.8,29.88,SW,232,0.0,0.0,46,0.00,,---,0.00,35.00,VWS V14.01,2013-06-01 23:45:00,
2013-06-01 19:50:00,87.2,63.9,29.88,WSW,247,0.0,0.0,46,0.00,,---,0.00,26.00,VWS V14.01,2013-06-01 23:50:00,
2013-06-01 19:55:00,87.0,64.3,29.88,SW,231,0.0,0.0,47,0.00,,---,0.00,21.00,VWS V14.01,2013-06-01 23:55:00,
2013-06-01 20:00:00,87.2,64.5,29.88,WSW,240,0.0,0.0,47,0.00,,---,0.00,16.00,VWS V14.01,2013-06-02 00:00:00,
2013-06-01 20:05:00,86.7,64.7,29.88,SSW,200,0.0,0.0,48,0.00,,---,0.00,12.00,VWS V14.01,2013-06-02 00:05:00,
2013-06-01 20:10:00,87.0,65.0,29.88,SSW,209,0.0,0.0,48,0.00,,---,0.00,7.00,VWS V14.01,2013-06-02 00:10:00,
2013-06-01 20:15:00,86.3,64.3,29.88,SW,217,0.0,0.0,48,0.00,,---,0.00,0.00,VWS V14.01,2013-06-02 00:15:00,
2013-06-01 20:20:00,85.9,64.5,29.88,SSW,205,0.0,0.0,49,0.00,,---,0.00,0.00,VWS V14.01,2013-06-02 00:20:00,
2013-06-01 20:25:00,85.8,65.0,29.88,South,176,0.0,0.0,50,0.00,,---,0.00,0.00,VWS V14.01,2013-06-02 00:25:00,
2013-06-01 20:30:00,85.5,64.8,29.88,West,259,0.0,0.0,50,0.00,,---,0.00,0.00,VWS V14.01,2013-06-02 00:30:00,
2013-06-01 20:35:00,85.4,65.2,29.88,SW,225,0.0,0.0,51,0.00,,---,0.00,0.00,VWS V14.01,2013-06-02 00:35:00,
2013-06-01 20:40:00,85.3,65.1,29.88,SW,217,0.0,0.0,51,0.00,,---,0.00,0.00,VWS V14.01,2013-06-02 00:40:00,
2013-06-01 20:45:00,85.1,65.5,29.88,SSW,206,0.0,0.0,52,0.00,,---,0.00,0.00,VWS V14.01,2013-06-02 00:45:00,
2013-06-01 20:50:00,85.2,66.2,29.89,SSW,209,0.0,0.0,53,0.00,,---,0.00,0.00,VWS V14.01,2013-06-02 00:50:00,
2013-06-01 20:55:00,85.4,65.8,29.89,SSW,209,0.0,0.0,52,0.00,,---,0.00,0.00,VWS V14.01,2013-06-02 00:55:00,
2013-06-01 21:00:00,84.4,65.4,29.89,SSW,209,0.0,0.0,53,0.00,,---,0.00,0.00,VWS V14.01,2013-06-02 01:00:00,
2013-06-01 21:05:00,83.9,64.9,29.89,SSW,211,0.0,0.0,53,0.00,,---,0.00,0.00,VWS V14.01,2013-06-02 01:05:00,
2013-06-01 21:10:00,84.2,65.8,29.89,SSW,211,0.0,0.0,54,0.00,,---,0.00,0.00,VWS V14.01,2013-06-02 01:10:00,
2013-06-01 21:15:00,84.1,65.7,29.89,SSW,211,0.0,0.0,54,0.00,,---,0.00,0.00,VWS V14.01,2013-06-02 01:15:00,
2013-06-01 21:20:00,83.7,65.3,29.89,SSW,211,0.0,0.0,54,0.00,,---,0.00,0.00,VWS V14.01,2013-06-02 01:20:00,
2013-06-01 21:25:00,83.3,65.5,29.90,SSW,211,0.0,0.0,55,0.00,,---,0.00,0.00,VWS V14.01,2013-06-02 01:25:00,
2013-06-01 21:30:00,83.0,65.2,29.90,SSW,211,0.0,0.0,55,0.00,,---,0.00,0.00,VWS V14.01,2013-06-02 01:30:00,
2013-06-01 21:35:00,82.8,65.5,29.89,SSW,211,0.0,0.0,56,0.00,,---,0.00,0.00,VWS V14.01,2013-06-02 01:35:00,
2013-06-01 21:40:00,82.7,65.9,29.90,WSW,245,0.0,0.0,57,0.00,,---,0.00,0.00,VWS V14.01,2013-06-02 01:40:00,
2013-06-01 21:45:00,82.9,66.1,29.90,WSW,245,0.0,0.0,57,0.00,,---,0.00,0.00,VWS V14.01,2013-06-02 01:45:00,
2013-06-01 21:50:00,82.5,65.8,29.90,WSW,245,0.0,0.0,57,0.00,,---,0.00,0.00,VWS V14.01,2013-06-02 01:50:00,
2013-06-01 21:55:00,82.7,65.9,29.90,WSW,245,0.0,0.0,57,0.00,,---,0.00,0.00,VWS V14.01,2013-06-02 01:55:00,
2013-06-01 22:00:00,82.2,66.0,29.90,WSW,246,0.0,0.0,58,0.00,,---,0.00,0.00,VWS V14.01,2013-06-02 02:00:00,
2013-06-01 22:05:00,81.9,66.2,29.90,WSW,244,0.0,0.0,59,0.00,,---,0.00,0.00,VWS V14.01,2013-06-02 02:05:00,
2013-06-01 22:10:00,81.6,65.9,29.90,SSW,192,0.0,0.0,59,0.00,,---,0.00,0.00,VWS V14.01,2013-06-02 02:10:00,
2013-06-01 22:15:00,81.6,66.4,29.90,SW,218,0.0,0.0,60,0.00,,---,0.00,0.00,VWS V14.01,2013-06-02 02:15:00,
2013-06-01 22:20:00,81.4,66.7,29.90,SW,217,0.0,0.0,61,0.00,,---,0.00,0.00,VWS V14.01,2013-06-02 02:20:00,
2013-06-01 22:25:00,81.2,66.9,29.90,WSW,242,0.0,0.0,62,0.00,,---,0.00,0.00,VWS V14.01,2013-06-02 02:25:00,
2013-06-01 22:30:00,81.1,67.3,29.89,SSW,202,0.0,0.0,63,0.00,,---,0.00,0.00,VWS V14.01,2013-06-02 02:30:00,
2013-06-01 22:35:00,80.9,68.0,29.89,SW,224,0.0,0.0,65,0.00,,---,0.00,0.00,VWS V14.01,2013-06-02 02:35:00,
2013-06-01 22:40:00,80.7,68.3,29.90,WSW,247,0.0,0.0,66,0.00,,---,0.00,0.00,VWS V14.01,2013-06-02 02:40:00,
2013-06-01 22:45:00,80.6,68.2,29.90,WSW,240,0.0,0.0,66,0.00,,---,0.00,0.00,VWS V14.01,2013-06-02 02:45:00,
2013-06-01 22:49:00,80.6,68.6,29.89,SW,222,0.0,0.0,67,0.00,,---,0.00,0.00,VWS V14.01,2013-06-02 02:49:00,
2013-06-01 22:54:00,80.5,68.5,29.89,West,279,0.0,0.0,67,0.00,,---,0.00,0.00,VWS V14.01,2013-06-02 02:54:00,
2013-06-01 22:59:00,80.3,68.8,29.89,SW,227,0.0,0.0,68,0.00,,---,0.00,0.00,VWS V14.01,2013-06-02 02:59:00,
2013-06-01 23:04:00,80.1,68.6,29.90,WSW,244,0.0,0.0,68,0.00,,---,0.00,0.00,VWS V14.01,2013-06-02 03:04:00,
2013-06-01 23:09:00,80.2,69.1,29.90,WSW,238,0.0,0.0,69,0.00,,---,0.00,0.00,VWS V14.01,2013-06-02 03:09:00,
2013-06-01 23:14:00,80.2,69.1,29.90,South,187,0.0,0.0,69,0.00,,---,0.00,0.00,VWS V14.01,2013-06-02 03:14:00,
2013-06-01 23:19:00,80.1,69.0,29.90,SSW,196,0.0,0.0,69,0.00,,---,0.00,0.00,VWS V14.01,2013-06-02 03:19:00,
2013-06-01 23:24:00,80.0,68.9,29.90,WSW,241,0.0,0.0,69,0.00,,---,0.00,0.00,VWS V14.01,2013-06-02 03:24:00,
2013-06-01 23:29:00,79.9,69.2,29.90,SW,228,0.0,0.0,70,0.00,,---,0.00,0.00,VWS V14.01,2013-06-02 03:29:00,
2013-06-01 23:34:00,79.7,69.1,29.89,SW,229,0.0,0.0,70,0.00,,---,0.00,0.00,VWS V14.01,2013-06-02 03:34:00,
2013-06-01 23:39:00,79.7,69.1,29.89,SW,221,0.0,0.0,70,0.00,,---,0.00,0.00,VWS V14.01,2013-06-02 03:39:00,
2013-06-01 23:44:00,79.6,69.0,29.90,SW,224,0.0,0.0,70,0.00,,---,0.00,0.00,VWS V14.01,2013-06-02 03:44:00,
2013-06-01 23:49:00,79.5,68.9,29.90,SW,227,0.0,0.0,70,0.00,,---,0.00,0.00,VWS V14.01,2013-06-02 03:49:00,
2013-06-01 23:54:00,79.4,68.8,29.90,SSW,207,0.0,0.0,70,0.00,,---,0.00,0.00,VWS V14.01,2013-06-02 03:54:00,
2013-06-01 23:59:00,79.3,68.7,29.89,SW,215,0.0,0.0,70,0.00,,---,0.00,0.00,VWS V14.01,2013-06-02 03:59:00,